sat.trackr.live / text

‹ back to catalog

STARLINK-2465

NORAD 48124 · 2021-027AJ

PAYLOAD ACTIVE UNKNOWN

§ Identity

Operator
Country
US
Launch date
2021-04-07
Launch site
AFETR
Launch vehicle
Mass (kg)
RCS (m²)

Purposes: comms

External: N2YO · Heavens-Above · Gunter

§ Orbital elements

Epoch: 2026-09-20T04:22:43.172832Z

Period
94.01 min
Inclination
53.1597°
Eccentricity
0.0001357
Mean motion
15.31696795 rev/d
Perigee alt
469.8 km
Apogee alt
471.7 km
Semi-major
6,848.9 km
B*
6.0834e-5
RAAN
329.8309°
Arg perigee
71.3883°
Mean anomaly
288.7266°
Rev number
30,245

§ Raw data

STARLINK-24651 48124U 21027AJ  26263.18244413  .00001523  00000+0  60834-4 0  99922 48124  53.1597 329.8309 0001357  71.3883 288.7266 15.31696795302456

JSON: /api/v1/satellites/48124 · /tle

For live sub-satellite position, see the globe view (requires WebGL).

§ Visibility from observer

Set your observer location to see the next 7 days of passes ≥ 10°. The values pass through the URL so the page stays shareable.

No JS? Fill the form by hand. The geolocation button needs JavaScript.